Theta_e
343 342 342 342 343 343 344 343 343 343 344 340 338 334 339 342 343 344 344 346 348 347 344 344 343 341 340 342 338 336 338 338 338 338 335 331 330 331 332 331 331 330 332
345 344 343 343 344 344 345 344 344 343 344 343 338 333 337 340 343 344 345 346 347 347 347 348 348 348 345 339 337 337 336 335 332 328 328 329 328 328 329 330 332 332 333
346 346 345 344 344 345 346 345 345 344 344 343 338 334 332 334 338 343 345 347 348 349 347 348 345 349 348 347 342 337 336 336 337 336 332 333 332 332 333 332 332 332 332
346 346 347 346 345 346 346 346 346 344 344 344 340 335 332 331 335 340 344 346 347 349 349 348 349 348 345 342 344 342 339 334 332 331 332 335 341 334 332 329 331 332 331
345 346 346 346 347 347 347 346 346 345 345 344 343 339 335 332 331 333 340 343 344 346 347 347 346 345 343 340 343 342 344 345 345 348 348 348 347 347 345 345 347 347 346
343 344 345 346 346 347 347 347 346 345 345 345 344 342 338 335 330 329 331 335 336 337 338 339 339 340 341 341 342 343 346 346 346 347 351 351 349 350 351 351 351 351 351
343 344 345 345 345 346 346 346 345 344 344 345 344 343 340 336 332 330 329 330 331 331 332 333 333 335 336 338 339 341 343 344 347 346 346 348 349 350 351 353 354 355 354
343 344 344 344 344 345 345 345 345 344 342 342 343 342 340 336 334 333 332 332 331 330 330 331 331 332 333 334 335 337 338 339 340 341 343 345 349 352 354 355 356 356 354
344 344 344 345 345 345 345 344 344 344 343 340 340 340 339 335 334 334 335 335 334 333 332 332 332 333 334 336 337 339 339 340 341 341 342 346 352 355 356 356 355 356 355
344 344 345 345 345 345 345 345 343 343 342 340 338 337 336 334 335 336 338 340 340 338 337 337 337 337 338 339 341 343 343 345 348 351 354 356 355 354 354 354 354 354 353
344 345 345 345 344 344 345 345 345 345 344 343 343 342 342 342 342 342 343 344 344 345 348 351 353 353 353 354 354 355 355 355 356 357 358 356 355 354 355 353 354 350 349
345 345 346 345 345 346 346 346 346 346 346 346 346 347 347 348 349 351 352 353 354 354 355 356 356 357 357 358 358 358 357 357 358 358 357 357 356 354 354 353 354 355 350
346 346 346 346 346 346 346 346 347 347 348 348 349 349 350 350 350 351 352 354 355 356 356 357 358 358 359 360 360 360 358 358 360 361 359 355 356 354 354 354 352 351 348
345 345 346 346 346 347 347 347 348 348 349 352 354 353 351 351 352 352 351 352 353 354 354 355 358 359 360 360 361 359 358 357 356 357 356 359 356 357 355 353 352 348 340
345 345 346 346 346 347 348 348 349 349 351 352 352 353 354 353 352 352 354 352 351 349 352 356 359 360 360 361 361 359 357 357 357 357 358 357 358 359 355 352 349 337 336
356 355 352 352 351 351 353 353 353 354 355 355 355 355 355 354 356 355 355 354 354 354 355 356 356 360 359 358 357 357 357 357 357 359 357 356 356 355 352 349 336 335 336
344 348 346 346 352 355 349 352 349 350 352 353 354 355 355 354 354 354 356 357 358 358 359 358 359 358 356 355 356 356 357 358 359 359 359 358 355 353 343 335 335 334 335
330 339 344 339 345 348 344 352 349 351 348 345 342 341 343 345 346 351 358 360 358 356 357 354 355 356 356 356 356 356 358 361 360 358 356 354 349 339 334 335 337 335 334
314 320 335 339 340 343 347 348 350 350 350 350 348 348 349 352 354 356 358 360 360 360 355 353 356 354 355 356 355 358 358 357 355 354 352 347 337 334 334 335 335 334 333
313 313 315 324 334 343 345 344 344 342 343 346 351 354 354 356 356 357 359 359 359 362 362 357 360 358 358 355 355 354 353 352 352 347 338 335 333 332 334 335 334 332 332
313 314 314 316 320 332 340 341 340 342 346 350 352 354 356 358 360 359 357 354 352 355 356 354 357 356 355 353 352 351 349 345 338 334 333 332 331 331 335 334 334 333 330
314 313 313 313 315 322 331 333 336 338 325 327 341 351 355 358 359 359 358 353 353 352 350 350 351 350 350 349 347 343 339 336 334 332 331 331 331 332 336 333 334 334 332
315 314 313 313 313 314 320 327 340 342 322 325 329 327 337 352 356 353 355 354 352 351 351 348 346 346 346 344 341 337 334 333 331 330 331 331 331 333 334 333 334 334 332
318 318 317 323 326 328 330 334 340 341 336 327 328 330 339 347 351 353 352 352 350 347 342 340 340 338 337 336 335 334 332 331 331 331 331 331 332 332 332 332 332 332 331
321 322 326 328 327 325 324 324 326 337 339 339 340 341 341 345 348 347 346 341 338 336 335 334 334 333 333 333 332 332 331 330 331 332 331 331 331 331 332 332 331 332 332
319 320 322 326 326 328 329 330 330 334 336 336 336 339 338 341 341 341 339 336 335 336 334 333 333 332 332 331 331 331 333 333 332 331 332 332 332 332 332 332 331 331 332
Wind_Speed
44 45 45 44 40 37 33 30 28 27 23 21 21 22 23 22 21 20 19 18 18 16 16 15 15 15 16 16 16 18 19 20 23 20 22 22 19 18 19 20 21 22 24
45 46 45 44 42 40 35 31 27 28 25 23 23 24 24 24 23 23 20 20 19 19 18 18 17 16 17 18 20 21 22 22 24 29 28 29 29 28 28 28 28 28 29
48 47 46 46 45 42 35 32 30 27 27 26 27 26 27 28 28 27 25 23 22 22 21 21 20 20 22 21 22 23 25 26 28 31 34 33 36 36 37 35 34 34 35
48 47 48 47 46 42 38 35 33 28 28 28 28 29 28 29 29 29 30 29 27 25 24 23 23 24 24 23 23 24 25 27 30 34 36 36 33 37 40 39 36 34 37
46 47 46 45 43 41 41 38 34 31 30 29 29 30 31 31 31 33 32 32 30 29 28 27 26 25 23 23 24 25 25 27 27 25 27 26 26 25 29 29 28 31 38
45 45 42 43 42 41 40 39 35 32 31 32 33 32 33 34 34 34 34 35 35 34 34 31 30 29 28 28 27 27 29 31 34 35 32 31 38 35 30 31 30 30 37
44 42 40 41 41 39 37 37 35 34 32 34 35 34 35 36 36 36 35 36 38 38 37 36 35 34 32 32 32 32 33 35 37 39 45 45 45 42 42 42 35 33 37
43 41 39 38 37 37 37 37 35 34 34 35 36 36 36 36 36 35 35 37 40 41 40 39 39 38 38 37 37 39 40 41 41 41 44 45 42 38 35 35 36 38 40
41 40 39 39 39 37 37 35 34 35 34 34 34 35 36 34 33 32 32 35 38 40 40 40 41 41 39 38 39 41 41 42 40 40 40 38 36 30 22 27 31 35 39
41 40 38 36 35 35 33 31 28 29 30 31 33 34 34 32 31 30 30 33 37 37 37 38 38 38 36 35 36 37 41 40 37 37 36 31 23 20 22 26 27 29 31
37 35 34 31 30 28 27 28 29 30 31 32 32 32 32 31 31 30 30 34 36 35 35 35 34 33 29 29 30 33 37 33 33 31 28 27 24 23 22 25 25 26 31
35 34 32 31 29 29 29 28 29 29 31 32 32 32 31 29 26 25 26 28 28 31 33 32 32 31 25 25 27 29 28 27 28 28 29 30 27 27 25 26 25 27 29
26 26 26 27 26 27 27 28 28 28 29 28 28 29 27 25 24 24 25 26 27 31 32 32 32 31 26 26 26 24 23 26 27 29 29 27 26 26 27 26 27 29 28
25 26 25 25 24 24 24 25 26 27 27 27 25 24 23 24 26 23 22 23 24 27 29 30 30 30 29 27 26 25 26 27 28 29 29 28 27 28 27 27 28 26 24
19 20 21 21 21 23 24 24 26 26 25 26 25 23 24 24 24 18 18 21 22 23 21 26 28 29 28 29 29 29 27 29 31 30 30 28 29 26 29 29 25 19 13
17 16 17 14 15 21 21 25 26 27 25 24 25 25 25 25 24 20 21 22 20 20 24 27 28 26 25 24 26 27 27 28 28 28 28 28 29 28 27 25 18 12 9
12 10 13 10 6 14 12 17 19 21 20 21 22 23 25 26 24 21 20 20 21 22 27 26 25 24 24 23 23 24 25 24 23 26 27 27 26 25 23 17 14 12 9
5 5 7 7 20 19 25 21 17 19 19 19 22 23 25 26 26 24 22 22 25 26 27 25 26 23 24 24 25 25 25 25 24 24 23 24 24 22 19 16 15 12 10
4 2 6 10 10 9 11 11 13 13 13 14 17 19 21 23 23 25 27 28 27 27 26 24 22 24 27 25 24 24 23 22 22 23 24 23 21 19 18 17 14 11 11
4 4 7 10 10 7 8 10 8 7 9 10 13 15 18 19 21 22 24 25 27 29 29 29 28 28 25 23 23 22 23 24 25 24 21 20 19 18 17 15 15 12 12
10 8 9 11 12 11 11 10 9 8 6 9 10 14 16 18 20 20 20 22 19 22 26 25 25 24 23 24 26 26 25 25 23 23 22 21 20 20 18 16 16 14 12
15 14 14 15 15 16 16 16 16 15 11 12 12 14 17 21 22 23 25 27 25 22 22 22 22 22 24 25 25 24 24 24 24 23 22 22 20 18 18 18 17 16 14
15 17 17 18 19 21 22 21 19 18 18 16 16 18 18 20 21 21 22 26 28 28 25 23 24 25 26 26 26 24 22 20 20 20 19 19 19 19 19 19 20 19 16
14 14 15 16 17 18 17 17 19 25 24 23 23 22 22 21 24 27 27 27 26 26 24 23 22 22 22 22 23 23 22 22 21 19 18 19 19 18 19 20 16 20 19
10 12 12 15 18 19 22 24 25 27 27 24 23 23 22 23 25 27 29 27 24 21 20 20 19 18 18 18 20 21 21 21 20 20 19 18 18 18 19 19 17 16 17
3 6 9 11 13 15 17 17 18 22 23 21 21 21 21 22 25 28 28 27 26 24 24 23 22 21 21 21 21 20 19 18 17 17 18 19 19 18 18 19 19 19 19
Wind_Direction
223 222 225 226 226 227 231 234 237 239 240 243 237 231 230 230 233 238 244 249 253 253 254 259 264 267 269 273 273 272 276 280 284 287 291 296 295 294 294 293 290 286 283
226 224 222 225 228 230 228 232 234 237 236 240 239 233 229 230 232 237 242 247 249 250 255 263 268 274 275 273 272 273 277 281 285 288 289 290 291 290 288 287 287 286 285
224 227 228 228 230 230 226 229 232 230 232 234 236 236 233 232 233 234 236 240 247 249 253 260 263 271 271 271 275 276 277 278 280 283 286 288 290 293 294 294 292 291 288
219 223 226 227 229 231 230 231 233 231 231 232 235 236 235 234 234 234 235 238 242 248 249 253 260 266 266 263 267 272 275 276 279 280 281 284 287 292 293 296 295 297 298
219 221 225 226 228 231 233 234 234 233 234 236 238 238 237 236 235 234 234 237 242 245 248 252 255 258 261 263 265 269 275 279 280 278 278 282 282 284 288 295 292 296 296
217 219 221 224 226 229 232 234 234 232 234 237 238 239 239 240 239 238 238 241 244 247 250 253 256 258 258 260 262 265 270 276 279 280 277 277 282 289 290 292 292 295 296
217 216 217 221 223 225 227 231 231 232 233 237 239 239 240 241 242 242 242 243 248 250 253 254 256 258 260 261 264 265 266 268 271 276 278 278 283 289 296 297 292 291 291
214 212 214 216 218 221 223 226 228 231 232 236 240 241 242 242 243 244 245 247 249 252 255 257 258 259 261 263 265 268 269 271 271 271 274 280 284 289 291 293 295 293 296
213 211 213 215 217 219 222 224 227 231 233 236 240 243 244 243 245 245 245 247 250 252 255 257 258 260 260 262 266 269 270 270 273 275 275 280 284 286 282 285 287 296 300
211 210 212 214 217 219 222 225 228 234 238 239 241 242 244 245 245 245 245 247 250 252 254 255 257 259 261 262 262 265 266 269 274 276 282 283 277 277 280 283 293 296 303
208 210 212 215 217 216 218 223 226 230 235 237 240 242 244 245 244 243 240 241 244 249 252 256 258 260 260 260 259 260 263 272 274 276 273 274 277 278 285 287 289 294 292
207 209 212 216 217 223 225 226 228 231 235 239 241 244 243 241 236 234 232 236 241 248 252 257 260 263 262 258 257 259 261 263 262 261 267 274 281 290 294 295 298 296 303
212 213 214 217 217 219 222 224 226 229 231 234 235 237 239 242 242 237 237 241 244 248 252 258 262 267 264 258 255 258 257 255 254 259 266 274 279 285 288 289 294 300 299
211 211 212 212 210 213 217 219 222 224 224 225 229 235 239 240 242 241 239 240 243 246 252 254 257 259 263 265 262 257 255 256 257 263 265 272 276 280 283 287 291 296 302
196 203 209 214 214 217 221 223 224 227 230 231 232 235 235 239 244 248 249 245 245 251 256 253 252 254 256 258 263 267 265 261 260 260 266 267 270 274 279 285 289 293 284
143 160 187 197 222 220 222 228 230 231 230 235 237 238 241 241 247 242 238 238 240 241 245 248 250 253 257 262 265 265 261 261 260 260 259 262 269 274 277 283 284 268 266
115 152 163 157 230 230 201 232 227 235 236 233 236 240 244 248 247 243 236 233 230 232 238 247 251 252 256 262 266 263 263 262 256 254 258 263 269 271 276 269 260 263 252
84 100 101 137 216 228 228 230 227 235 236 241 246 251 252 254 254 247 239 233 235 237 241 248 255 257 260 264 263 262 264 258 257 257 261 266 267 268 264 253 260 256 217
83 179 181 195 210 213 213 220 227 235 243 249 253 250 249 248 246 239 233 231 238 244 245 250 253 256 260 260 259 259 259 257 260 263 265 261 261 255 249 253 247 233 220
305 232 220 226 225 230 229 227 233 248 258 264 268 259 251 245 243 240 235 237 240 245 246 251 252 254 252 253 255 257 259 265 265 261 256 251 247 243 241 240 228 220 223
294 279 260 259 255 247 253 256 256 245 255 260 268 264 253 251 247 241 232 231 236 246 251 252 250 248 253 256 258 260 259 260 257 256 253 245 243 240 233 233 224 217 217
288 277 266 257 254 255 251 257 258 247 252 264 265 263 253 250 248 244 242 237 231 234 247 253 255 257 256 256 254 251 251 253 254 248 243 241 236 228 229 228 224 215 205
281 275 271 260 257 253 250 249 255 256 252 248 253 262 261 259 255 249 246 240 238 234 228 230 235 242 251 249 248 246 245 243 242 238 234 231 229 227 228 230 221 217 209
279 269 265 269 266 259 257 257 248 244 246 246 246 253 249 243 242 242 240 240 240 236 234 237 241 243 246 247 248 248 244 241 235 235 235 232 229 228 231 222 220 224 222
269 264 264 264 261 256 257 253 252 254 253 255 256 257 261 260 253 248 245 239 231 230 233 234 235 235 236 246 256 250 242 237 239 238 233 228 235 235 231 226 223 225 222
318 292 267 257 261 260 258 257 252 247 247 249 252 252 255 244 247 244 238 232 229 228 227 224 225 226 226 231 236 242 245 242 237 235 232 232 231 228 231 232 234 232 226